Retour au catalogue

COSMOS 1247 DEB

LostHEO
NORAD 48263·DEBRIS·🇷🇺 Russia

Lancé Feb 19, 1981 depuis Plesetsk Cosmodrome

Loading…

Prochains Passages (prochaines 24 heures)

TLE

PériméSource: Space-Track

Époque: Oct 13, 2024, 13:49 UTC

1 48263U 81016M   24287.57578955 -.00000345  00000-0  00000-0 0  9996
2 48263  68.3398  41.2559 6050120 351.3527   1.6118  1.96491137139751

Suivez COSMOS 1247 DEB en temps réel avec AllMySat

Download on the App Store